Skip Page Navigation
NASA JPL Caltech
NASA Logo - Jet Propulsion Laboratory + View the NASA Portal
+ Center for Near-Earth Object Studies
JPL Home Earth Solar System Stars & Galaxies Technology
JPL Solar System Dynamics
BODIES ORBITS EPHEMERIDES TOOLS PHYSICAL DATA DISCOVERY FAQ SITE MAP
JPL Small-Body Database Browser
Search: [ help ]  
11325 Slavicky (1995 SG)
Classification: Main-belt Asteroid          SPK-ID: 2011325
Ephemeris | Orbit Diagram | Orbital Elements | Mission Design | Physical Parameters | Discovery Circumstances | Close-Approach Data ]

[ show orbit diagram ]
Orbital Elements at Epoch 2459000.5 (2020-May-31.0) TDB
Reference: JPL 23 (heliocentric ecliptic J2000)
 Element Value Uncertainty (1-sigma)   Units 
e .1347225209890977 2.7764e-08  
a 2.540992926930673 8.7807e-09 au
q 2.198663953999107 7.2259e-08 au
i 1.355197127868228 3.0024e-06 deg
node 236.0913183115419 0.00021045 deg
peri 167.5361797400377 0.00021136 deg
M 1.295546722502428 2.1077e-05 deg
tp 2458995.175802093709
(2020-May-25.67580209)
8.6611e-05 TDB
period 1479.461306160095
4.05
7.6686e-06
2.1e-08
d
yr
n .2433318117216402 1.2613e-09 deg/d
Q 2.883321899862239 9.9636e-09 au
  Orbit Determination Parameters
   # obs. used (total)      1186  
   data-arc span      10286 days (28.16 yr)  
   first obs. used      1991-10-08  
   last obs. used      2019-12-06  
   planetary ephem.      DE431  
   SB-pert. ephem.      SB431-N16  
   condition code      0  
   norm. resid. RMS      .52359  
   source      ORB  
   producer      Otto Matic  
   solution date      2019-Dec-13 23:14:32  

Additional Information
 Earth MOID = 1.20755 au 
 Jupiter MOID = 2.49318 au 
 T_jup = 3.432 
[ hide covariance matrix ]
Orbital Elements at Epoch 2456699.5 (2014-Feb-11.0) TDB
Reference: JPL 23 (heliocentric ecliptic J2000)
 Element Value Uncertainty (1-sigma)   Units 
e .1357345859389868 2.8028e-08  
q 2.195796011361896 7.3075e-08 au
tp 2456031.386430685271
(2012-Apr-13.88643069)
8.2062e-05 TDB
node 236.1728212256059 0.00021102 deg
peri 166.5277179853757 0.0002119 deg
i 1.351837379974615 3.0017e-06 deg
  Orbit Determination Parameters
   # obs. used (total)      1186  
   data-arc span      10286 days (28.16 yr)  
   first obs. used      1991-10-08  
   last obs. used      2019-12-06  
   planetary ephem.      DE431  
   SB-pert. ephem.      SB431-N16  
   condition code      0  
   norm. resid. RMS      .52359  
   source      ORB  
   producer      Otto Matic  
   solution date      2019-Dec-13 23:14:32  

Additional Information
 Jupiter MOID = 2.49318 au 
 T_jup = 3.432 
Orbit Covariance (6×6)
  e q tp node peri i
e 7.855902697153608E-16 -2.037262116060148E-15 -6.256393030463917E-13 -2.569926697613444E-15 -1.353022186383667E-13 -2.465660206068045E-16
q -2.037262116060148E-15 5.339973390039799E-15 1.684996652624292E-12 7.475296828237168E-15 3.708304338858413E-13 6.803401369738703E-16
tp -6.256393030463917E-13 1.684996652624292E-12 6.734116090315359E-9 4.80335849306175E-11 1.613771529771603E-9 1.318975438781935E-12
node -2.569926697613444E-15 7.475296828237168E-15 4.80335849306175E-11 4.453070761193634E-8 -4.450657269733916E-8 3.205493023611967E-11
peri -1.353022186383667E-13 3.708304338858413E-13 1.613771529771603E-9 -4.450657269733916E-8 4.490035816540124E-8 -3.172416275255549E-11
i -2.465660206068045E-16 6.803401369738703E-16 1.318975438781935E-12 3.205493023611967E-11 -3.172416275255549E-11 9.010307821966771E-12

Ephemeris | Orbit Diagram | Orbital Elements | Mission Design | Physical Parameters | Discovery Circumstances | Close-Approach Data ]

Physical Parameter Table
Parameter Symbol Value Units Sigma Reference Notes
absolute magnitude H 15.4   n/a MPO452330  

11325 Slavický           Discovered 1995 Sept. 17 by L. Šarounová at Ondřejov.
Klement Slavický (1910-1999) was an outstanding Czech composer, whose personal musical expression was rooted in the folk-music culture of Moravia. He was also appreciated for his life-long high moral standards. In 1985 Slavický was awarded with the Golden Medal of the United Nations for his fourth Symphonietta.
NOTE: some special characters may not display properly (any characters within {} are an attempt to place the proper accent above a character)
Reference: 19991123/MPCPages.arcLast Updated: 2010-06-11

[ hide close-approach data ]
Close-Approach Data   ...sorted by Date/Time (TDB)
Date/Time (TDB) Time Uncertainty
(days_HH:MM)
Body Nominal Distance (au) Minimum Distance (au) Maximum Distance (au) V-relative (km/s) V-infinity (km/s) JD (TDB) Time Uncertainty (minutes) Semi-major axis (km) Semi-minor axis (km) range-LOV angle (deg) N-sigma BP Orbit Ref. Reference Modified
2096-Oct-28 07:10 < 00:01 Juno 0.00121432718370417 0.00121288548650257 0.00121582774727165 5.02561908097194 5.02561708745111 2486909.798865553 0.317770136516646 455.314084693414 25.4643993660079 -81.3025486153744 7043.20252276469 T 23 CATAB v2.0f-lin.ifort 2019-Dec-13 23:14:45 2019-Dec-13 23:14
Ephemeris | Orbit Diagram | Orbital Elements | Mission Design | Physical Parameters | Discovery Circumstances | Close-Approach Data ]
ABOUT SSD CREDITS/AWARDS PRIVACY/COPYRIGHT GLOSSARY LINKS
FirstGov 2020-Jul-12 17:36 UT
(server date/time)  
NASA Home Page
Site Manager:   Ryan S. Park
Webmaster  Alan B. Chamberlin